Fountain Dale, PA

7:01 AM EDT on August 17, 2017 (GMT -0400)
Fountain Dale

Weather History for KRYT - May, 2014

Change the Weather History Date:

Saturday, May 3, 2014

  Actual Average (KHGR) Record (KHGR)
Temperature  
Mean Temperature 56 °F -  
Max Temperature 68 °F 68 °F 87 °F (2001)
Min Temperature 43 °F 47 °F 35 °F (2005)
Degree Days  
Heating Degree Days 10    
Growing Degree Days 6 (Base 50)    
Moisture  
Dew Point 39 °F    
Average Humidity 58    
Maximum Humidity 80    
Minimum Humidity 33    
Precipitation  
Precipitation 0.02 in - - ()
Sea Level Pressure  
Sea Level Pressure 29.82 in    
Wind  
Wind Speed 4 mph (WSW)    
Max Wind Speed 10 mph    
Max Gust Speed 20 mph    
Visibility 10 miles    
Events      
Averages and records for this station are not official NWS values.
T = Trace of Precipitation, MM = Missing Value Source: NWS Daily Summary

Daily Weather History Graph

Daily Weather History Graph

Search for Another Location

Airport or City:

Trip Planner

Search our weather history database for the weather conditions in past years. The results will help you decide how hot, cold, wet, or windy it might be!

Date:

Astronomy

May. 03, 2014 Rise Set
Actual Time 6:07 AM EDT 8:05 PM EDT
Civil Twilight 5:38 AM EDT 8:35 PM EDT
Nautical Twilight 5:02 AM EDT 9:11 PM EDT
Astronomical Twilight 4:24 AM EDT 9:50 PM EDT
Moon 9:35 AM EDT (5/3) No Moon Set
Length of Visible Light 14h 56m
Length of Day
13h 58m
Waxing Crescent, 19% of the Moon is Illuminated
May 3
Waxing Crescent
May 6
First Quarter
May 14
Full
May 21
Last Quarter
May 28
New

Hourly Weather History & Observations

Time (EDT) Temp. Windchill Dew Point Humidity Pressure Visibility Wind Dir Wind Speed Gust Speed Precip Events Conditions
12:53 AM 44.1 °F 42.5 °F 37.9 °F 79% 29.88 in 10.0 mi SW 3.5 mph - N/A   Partly Cloudy
1:53 AM 45.0 °F - 36.0 °F 71% 29.87 in 10.0 mi Calm Calm - N/A   Clear
2:53 AM 43.0 °F 41.3 °F 36.0 °F 76% 29.87 in 10.0 mi SSW 3.5 mph - N/A   Clear
3:53 AM 44.1 °F - 36.0 °F 73% 29.88 in 10.0 mi Calm Calm - N/A   Overcast
4:53 AM 44.1 °F - 37.9 °F 79% 29.87 in 10.0 mi Calm Calm - N/A   Overcast
5:53 AM 44.1 °F 41.5 °F 37.9 °F 79% 29.87 in 10.0 mi WSW 4.6 mph - N/A   Overcast
6:53 AM 46.0 °F 44.8 °F 39.0 °F 76% 29.87 in 10.0 mi WSW 3.5 mph - N/A   Overcast
7:53 AM 51.1 °F - 39.0 °F 63% 29.86 in 10.0 mi Calm Calm - N/A   Overcast
8:53 AM 53.1 °F - 41.0 °F 64% 29.87 in 10.0 mi Calm Calm - N/A   Overcast
9:53 AM 60.1 °F - 37.9 °F 44% 29.85 in 10.0 mi WSW 3.5 mph - N/A   Overcast
10:53 AM 60.1 °F - 37.0 °F 42% 29.84 in 10.0 mi Variable 6.9 mph - N/A   Overcast
11:53 AM 62.1 °F - 39.0 °F 43% 29.83 in 10.0 mi WSW 10.4 mph 16.1 mph N/A   Mostly Cloudy
12:53 PM 63.0 °F - 39.0 °F 41% 29.80 in 10.0 mi Variable 6.9 mph 16.1 mph N/A   Overcast
1:53 PM 64.9 °F - 39.9 °F 40% 29.79 in 10.0 mi Variable 5.8 mph - N/A   Mostly Cloudy
2:53 PM 64.0 °F - 39.0 °F 40% 29.78 in 10.0 mi WSW 9.2 mph - 0.00 in   Overcast
3:53 PM 66.0 °F - 37.9 °F 36% 29.74 in 10.0 mi West 8.1 mph - N/A   Partly Cloudy
4:53 PM 68.0 °F - 37.9 °F 33% 29.72 in 10.0 mi WSW 9.2 mph 19.6 mph N/A   Clear
5:53 PM 66.0 °F - 36.0 °F 33% 29.73 in 10.0 mi SW 10.4 mph 17.3 mph N/A   Mostly Cloudy
6:53 PM 63.0 °F - 37.9 °F 40% 29.75 in 10.0 mi WSW 4.6 mph - 0.00 in   Mostly Cloudy
7:53 PM 59.0 °F - 43.0 °F 55% 29.78 in 10.0 mi Variable 4.6 mph - 0.00 in   Mostly Cloudy
8:53 PM 54.0 °F - 45.0 °F 72% 29.80 in 10.0 mi Variable 3.5 mph - 0.02 in   Mostly Cloudy
9:53 PM 55.9 °F - 42.1 °F 60% 29.81 in 10.0 mi Variable 3.5 mph - N/A   Clear
10:53 PM 48.9 °F - 43.0 °F 80% 29.81 in 10.0 mi Calm Calm - N/A   Clear
11:53 PM 51.1 °F - 43.0 °F 74% 29.82 in 10.0 mi Calm Calm - N/A   Clear